owner,sensor,date,latitude,longitude,air_pressure(mBar),qcFlag 
NDBC,ioos:station:NOAA.NDBC:BURL1:1,2017-05-09T21:00:00Z,28.9060,-89.4290,1018.9,1111122 
NDBC,ioos:station:NOAA.NDBC:BURL1:1,2017-05-09T22:00:00Z,28.9060,-89.4290,1018.4,1111122 
NDBC,ioos:station:NOAA.NDBC:BURL1:1,2017-05-09T23:00:00Z,28.9060,-89.4290,1017.9,1111122 
NDBC,ioos:station:NOAA.NDBC:BURL1:1,2017-05-10T00:00:00Z,28.9060,-89.4290,1018.0,1111122 
NDBC,ioos:station:NOAA.NDBC:BURL1:1,2017-05-10T01:00:00Z,28.9060,-89.4290,1018.3,1111122 
NDBC,ioos:station:NOAA.NDBC:BURL1:1,2017-05-10T02:00:00Z,28.9060,-89.4290,1018.5,1111122 
NDBC,ioos:station:NOAA.NDBC:BURL1:1,2017-05-10T03:00:00Z,28.9060,-89.4290,1018.8,1111122 
NDBC,ioos:station:NOAA.NDBC:BURL1:1,2017-05-10T04:00:00Z,28.9060,-89.4290,1018.7,1111122 
NDBC,ioos:station:NOAA.NDBC:BURL1:1,2017-05-10T05:00:00Z,28.9060,-89.4290,1018.4,1111122 
NDBC,ioos:station:NOAA.NDBC:BURL1:1,2017-05-10T06:00:00Z,28.9060,-89.4290,1017.9,1111122 
NDBC,ioos:station:NOAA.NDBC:BURL1:1,2017-05-10T07:00:00Z,28.9060,-89.4290,1017.6,1111122 
NDBC,ioos:station:NOAA.NDBC:BURL1:1,2017-05-10T08:00:00Z,28.9060,-89.4290,1017.3,1111122 
NDBC,ioos:station:NOAA.NDBC:BURL1:1,2017-05-10T09:00:00Z,28.9060,-89.4290,1017.1,1111122 
NDBC,ioos:station:NOAA.NDBC:BURL1:1,2017-05-10T10:00:00Z,28.9060,-89.4290,1017.4,1111122 
NDBC,ioos:station:NOAA.NDBC:BURL1:1,2017-05-10T11:00:00Z,28.9060,-89.4290,1017.7,1111122 
NDBC,ioos:station:NOAA.NDBC:BURL1:1,2017-05-10T12:00:00Z,28.9060,-89.4290,1018.5,1111122 
NDBC,ioos:station:NOAA.NDBC:BURL1:1,2017-05-10T13:00:00Z,28.9060,-89.4290,1019.0,1111122 
NDBC,ioos:station:NOAA.NDBC:BURL1:1,2017-05-10T14:00:00Z,28.9060,-89.4290,1019.2,1111122 
NDBC,ioos:station:NOAA.NDBC:BURL1:1,2017-05-10T16:00:00Z,28.9060,-89.4290,1019.9,1111122 
NDBC,ioos:station:NOAA.NDBC:BURL1:1,2017-05-10T17:00:00Z,28.9060,-89.4290,1019.9,1111122 
NDBC,ioos:station:NOAA.NDBC:BURL1:1,2017-05-10T19:00:00Z,28.9060,-89.4290,1019.4,1111122 
NDBC,ioos:station:NOAA.NDBC:BURL1:1,2017-05-10T20:00:00Z,28.9060,-89.4290,1018.9,1111122 
NDBC,ioos:station:NOAA.NDBC:BURL1:1,2017-05-10T21:00:00Z,28.9060,-89.4290,1018.5,1111122 
NDBC,ioos:station:NOAA.NDBC:BURL1:1,2017-05-10T22:00:00Z,28.9060,-89.4290,1018.5,1111122 
NDBC,ioos:station:NOAA.NDBC:BURL1:1,2017-05-10T23:00:00Z,28.9060,-89.4290,1018.3,1111122 
NDBC,ioos:station:NOAA.NDBC:BURL1:1,2017-05-11T00:00:00Z,28.9060,-89.4290,1017.8,1111122 
NDBC,ioos:station:NOAA.NDBC:BURL1:1,2017-05-11T01:00:00Z,28.9060,-89.4290,1018.2,1111122 
NDBC,ioos:station:NOAA.NDBC:BURL1:1,2017-05-11T02:00:00Z,28.9060,-89.4290,1018.5,1111122 
NDBC,ioos:station:NOAA.NDBC:BURL1:1,2017-05-11T03:00:00Z,28.9060,-89.4290,1018.8,1111122 
NDBC,ioos:station:NOAA.NDBC:BURL1:1,2017-05-11T04:00:00Z,28.9060,-89.4290,1018.8,1111122 
NDBC,ioos:station:NOAA.NDBC:BURL1:1,2017-05-11T05:00:00Z,28.9060,-89.4290,1018.1,1111122 
NDBC,ioos:station:NOAA.NDBC:BURL1:1,2017-05-11T06:00:00Z,28.9060,-89.4290,1017.4,1111122 
NDBC,ioos:station:NOAA.NDBC:BURL1:1,2017-05-11T07:00:00Z,28.9060,-89.4290,1016.9,1111122 
NDBC,ioos:station:NOAA.NDBC:BURL1:1,2017-05-11T08:00:00Z,28.9060,-89.4290,1016.3,1111122 
NDBC,ioos:station:NOAA.NDBC:BURL1:1,2017-05-11T09:00:00Z,28.9060,-89.4290,1015.9,1111122 
NDBC,ioos:station:NOAA.NDBC:BURL1:1,2017-05-11T10:00:00Z,28.9060,-89.4290,1016.2,1111122 
NDBC,ioos:station:NOAA.NDBC:BURL1:1,2017-05-11T11:00:00Z,28.9060,-89.4290,1016.1,1111122 
NDBC,ioos:station:NOAA.NDBC:BURL1:1,2017-05-11T12:00:00Z,28.9060,-89.4290,1016.9,1111122 
NDBC,ioos:station:NOAA.NDBC:BURL1:1,2017-05-11T13:00:00Z,28.9060,-89.4290,1017.2,1111122 
NDBC,ioos:station:NOAA.NDBC:BURL1:1,2017-05-11T15:00:00Z,28.9060,-89.4290,1018.2,1111122 
NDBC,ioos:station:NOAA.NDBC:BURL1:1,2017-05-11T17:00:00Z,28.9060,-89.4290,1018.7,1111122 
NDBC,ioos:station:NOAA.NDBC:BURL1:1,2017-05-11T18:00:00Z,28.9060,-89.4290,1018.1,1111122 
NDBC,ioos:station:NOAA.NDBC:BURL1:1,2017-05-11T19:00:00Z,28.9060,-89.4290,1017.3,1111122 
NDBC,ioos:station:NOAA.NDBC:BURL1:1,2017-05-11T20:00:00Z,28.9060,-89.4290,1016.8,1111122 
NDBC,ioos:station:NOAA.NDBC:BURL1:1,2017-05-11T21:00:00Z,28.9060,-89.4290,1016.1,1111122 
NDBC,ioos:station:NOAA.NDBC:BURL1:1,2017-05-11T22:00:00Z,28.9060,-89.4290,1015.2,1111122 
NDBC,ioos:station:NOAA.NDBC:BURL1:1,2017-05-11T23:00:00Z,28.9060,-89.4290,1014.7,1111122 
NDBC,ioos:station:NOAA.NDBC:BURL1:1,2017-05-12T00:00:00Z,28.9060,-89.4290,1014.4,1111122 
NDBC,ioos:station:NOAA.NDBC:BURL1:1,2017-05-12T01:00:00Z,28.9060,-89.4290,1014.4,1111122 
NDBC,ioos:station:NOAA.NDBC:BURL1:1,2017-05-12T02:00:00Z,28.9060,-89.4290,1014.1,1111122 
NDBC,ioos:station:NOAA.NDBC:BURL1:1,2017-05-12T03:00:00Z,28.9060,-89.4290,1013.9,1111122 
NDBC,ioos:station:NOAA.NDBC:BURL1:1,2017-05-12T04:00:00Z,28.9060,-89.4290,1014.2,1111122 
NDBC,ioos:station:NOAA.NDBC:BURL1:1,2017-05-12T05:00:00Z,28.9060,-89.4290,1014.0,1111122 
NDBC,ioos:station:NOAA.NDBC:BURL1:1,2017-05-12T06:00:00Z,28.9060,-89.4290,1013.8,1111122 
NDBC,ioos:station:NOAA.NDBC:BURL1:1,2017-05-12T07:00:00Z,28.9060,-89.4290,1013.1,1111122 
NDBC,ioos:station:NOAA.NDBC:BURL1:1,2017-05-12T08:00:00Z,28.9060,-89.4290,1012.4,1111122 
NDBC,ioos:station:NOAA.NDBC:BURL1:1,2017-05-12T09:00:00Z,28.9060,-89.4290,1012.4,1111122 
NDBC,ioos:station:NOAA.NDBC:BURL1:1,2017-05-12T10:00:00Z,28.9060,-89.4290,1012.0,1111122 
NDBC,ioos:station:NOAA.NDBC:BURL1:1,2017-05-12T11:00:00Z,28.9060,-89.4290,1012.2,1111122 
NDBC,ioos:station:NOAA.NDBC:BURL1:1,2017-05-12T12:00:00Z,28.9060,-89.4290,1012.3,1111122 
NDBC,ioos:station:NOAA.NDBC:BURL1:1,2017-05-12T13:00:00Z,28.9060,-89.4290,1012.6,1111122 
NDBC,ioos:station:NOAA.NDBC:BURL1:1,2017-05-12T14:00:00Z,28.9060,-89.4290,1012.4,1111122 
NDBC,ioos:station:NOAA.NDBC:BURL1:1,2017-05-12T15:00:00Z,28.9060,-89.4290,1011.7,1111122 
NDBC,ioos:station:NOAA.NDBC:BURL1:1,2017-05-12T16:00:00Z,28.9060,-89.4290,1010.6,1111122 
NDBC,ioos:station:NOAA.NDBC:BURL1:1,2017-05-12T17:00:00Z,28.9060,-89.4290,1010.5,1111122 
NDBC,ioos:station:NOAA.NDBC:BURL1:1,2017-05-12T18:00:00Z,28.9060,-89.4290,1010.6,1111122 
NDBC,ioos:station:NOAA.NDBC:BURL1:1,2017-05-12T19:00:00Z,28.9060,-89.4290,1010.4,1111122 
NDBC,ioos:station:NOAA.NDBC:BURL1:1,2017-05-12T20:00:00Z,28.9060,-89.4290,1010.0,1111122 
NDBC,ioos:station:NOAA.NDBC:BURL1:1,2017-05-12T21:00:00Z,28.9060,-89.4290,1008.8,1111122 
NDBC,ioos:station:NOAA.NDBC:BURL1:1,2017-05-12T22:00:00Z,28.9060,-89.4290,1008.3,1111122 
NDBC,ioos:station:NOAA.NDBC:BURL1:1,2017-05-14T14:00:00Z,28.9060,-89.4290,1014.8,1111122 
NDBC,ioos:station:NOAA.NDBC:BURL1:1,2017-05-14T15:00:00Z,28.9060,-89.4290,1015.3,1111122 
NDBC,ioos:station:NOAA.NDBC:BURL1:1,2017-05-14T16:00:00Z,28.9060,-89.4290,1015.7,1111122 
NDBC,ioos:station:NOAA.NDBC:BURL1:1,2017-05-14T17:00:00Z,28.9060,-89.4290,1015.6,1111122 
NDBC,ioos:station:NOAA.NDBC:BURL1:1,2017-05-14T18:00:00Z,28.9060,-89.4290,1015.2,1111122 
NDBC,ioos:station:NOAA.NDBC:BURL1:1,2017-05-14T19:00:00Z,28.9060,-89.4290,1014.9,1111122 
NDBC,ioos:station:NOAA.NDBC:BURL1:1,2017-05-14T20:00:00Z,28.9060,-89.4290,1014.5,1111122 
NDBC,ioos:station:NOAA.NDBC:BURL1:1,2017-05-14T21:00:00Z,28.9060,-89.4290,1014.4,1111122 
NDBC,ioos:station:NOAA.NDBC:BURL1:1,2017-05-14T22:00:00Z,28.9060,-89.4290,1014.2,1111122 
NDBC,ioos:station:NOAA.NDBC:BURL1:1,2017-05-15T00:00:00Z,28.9060,-89.4290,1013.9,1111122 
NDBC,ioos:station:NOAA.NDBC:BURL1:1,2017-05-15T01:00:00Z,28.9060,-89.4290,1014.0,1111122 
NDBC,ioos:station:NOAA.NDBC:BURL1:1,2017-05-15T02:00:00Z,28.9060,-89.4290,1014.1,1111122 
NDBC,ioos:station:NOAA.NDBC:BURL1:1,2017-05-15T03:00:00Z,28.9060,-89.4290,1014.8,1111122 
NDBC,ioos:station:NOAA.NDBC:BURL1:1,2017-05-15T04:00:00Z,28.9060,-89.4290,1014.9,1111122 
NDBC,ioos:station:NOAA.NDBC:BURL1:1,2017-05-15T05:00:00Z,28.9060,-89.4290,1015.0,1111122 
NDBC,ioos:station:NOAA.NDBC:BURL1:1,2017-05-15T06:00:00Z,28.9060,-89.4290,1014.7,1111122 
NDBC,ioos:station:NOAA.NDBC:BURL1:1,2017-05-15T07:00:00Z,28.9060,-89.4290,1014.2,1111122 
NDBC,ioos:station:NOAA.NDBC:BURL1:1,2017-05-15T08:00:00Z,28.9060,-89.4290,1014.0,1111122 
NDBC,ioos:station:NOAA.NDBC:BURL1:1,2017-05-15T09:00:00Z,28.9060,-89.4290,1014.1,1111122 
NDBC,ioos:station:NOAA.NDBC:BURL1:1,2017-05-15T10:00:00Z,28.9060,-89.4290,1014.6,1111122 
NDBC,ioos:station:NOAA.NDBC:BURL1:1,2017-05-15T11:00:00Z,28.9060,-89.4290,1015.2,1111122 
NDBC,ioos:station:NOAA.NDBC:BURL1:1,2017-05-15T12:00:00Z,28.9060,-89.4290,1015.8,1111122 
NDBC,ioos:station:NOAA.NDBC:BURL1:1,2017-05-15T13:00:00Z,28.9060,-89.4290,1016.5,1111122 
NDBC,ioos:station:NOAA.NDBC:BURL1:1,2017-05-15T14:00:00Z,28.9060,-89.4290,1016.7,1111122 
NDBC,ioos:station:NOAA.NDBC:BURL1:1,2017-05-15T16:00:00Z,28.9060,-89.4290,1016.8,1111122 
NDBC,ioos:station:NOAA.NDBC:BURL1:1,2017-05-15T17:00:00Z,28.9060,-89.4290,1016.6,1111122 
NDBC,ioos:station:NOAA.NDBC:BURL1:1,2017-05-15T18:00:00Z,28.9060,-89.4290,1016.4,1111122 
NDBC,ioos:station:NOAA.NDBC:BURL1:1,2017-05-15T19:00:00Z,28.9060,-89.4290,1016.2,1111122 
NDBC,ioos:station:NOAA.NDBC:BURL1:1,2017-05-15T21:00:00Z,28.9060,-89.4290,1015.6,1111122 
NDBC,ioos:station:NOAA.NDBC:BURL1:1,2017-05-15T22:00:00Z,28.9060,-89.4290,1015.0,1111122 
NDBC,ioos:station:NOAA.NDBC:BURL1:1,2017-05-15T23:00:00Z,28.9060,-89.4290,1015.1,1111122 
NDBC,ioos:station:NOAA.NDBC:BURL1:1,2017-05-16T00:00:00Z,28.9060,-89.4290,1015.0,1111122 
NDBC,ioos:station:NOAA.NDBC:BURL1:1,2017-05-16T01:00:00Z,28.9060,-89.4290,1015.0,1111122 
NDBC,ioos:station:NOAA.NDBC:BURL1:1,2017-05-16T02:00:00Z,28.9060,-89.4290,1015.1,1111122 
NDBC,ioos:station:NOAA.NDBC:BURL1:1,2017-05-16T03:00:00Z,28.9060,-89.4290,1015.7,1111122 
NDBC,ioos:station:NOAA.NDBC:BURL1:1,2017-05-16T07:00:00Z,28.9060,-89.4290,1015.2,1111122 
NDBC,ioos:station:NOAA.NDBC:BURL1:1,2017-05-16T10:00:00Z,28.9060,-89.4290,1014.9,1111122 
NDBC,ioos:station:NOAA.NDBC:BURL1:1,2017-05-16T11:00:00Z,28.9060,-89.4290,1014.9,1111122 
NDBC,ioos:station:NOAA.NDBC:BURL1:1,2017-05-16T13:00:00Z,28.9060,-89.4290,1016.3,1111122 
NDBC,ioos:station:NOAA.NDBC:BURL1:1,2017-05-16T14:00:00Z,28.9060,-89.4290,1016.6,1111122 
NDBC,ioos:station:NOAA.NDBC:BURL1:1,2017-05-16T15:00:00Z,28.9060,-89.4290,1016.6,1111122 
NDBC,ioos:station:NOAA.NDBC:BURL1:1,2017-05-16T16:00:00Z,28.9060,-89.4290,1016.9,1111122 
NDBC,ioos:station:NOAA.NDBC:BURL1:1,2017-05-16T18:00:00Z,28.9060,-89.4290,1016.8,1111122 
NDBC,ioos:station:NOAA.NDBC:BURL1:1,2017-05-16T19:00:00Z,28.9060,-89.4290,1016.2,1111122 
NDBC,ioos:station:NOAA.NDBC:BURL1:1,2017-05-16T20:00:00Z,28.9060,-89.4290,1016.1,1111122 
NDBC,ioos:station:NOAA.NDBC:BURL1:1,2017-05-16T21:00:00Z,28.9060,-89.4290,1015.9,1111122 
NDBC,ioos:station:NOAA.NDBC:BURL1:1,2017-05-16T22:00:00Z,28.9060,-89.4290,1015.9,1111122 
NDBC,ioos:station:NOAA.NDBC:BURL1:1,2017-05-16T23:00:00Z,28.9060,-89.4290,1015.4,1111122 
NDBC,ioos:station:NOAA.NDBC:BURL1:1,2017-05-17T00:00:00Z,28.9060,-89.4290,1015.0,1111122 
NDBC,ioos:station:NOAA.NDBC:BURL1:1,2017-05-17T01:00:00Z,28.9060,-89.4290,1014.8,1111122 
NDBC,ioos:station:NOAA.NDBC:BURL1:1,2017-05-17T02:00:00Z,28.9060,-89.4290,1014.8,1111122 
NDBC,ioos:station:NOAA.NDBC:BURL1:1,2017-05-18T14:00:00Z,28.9060,-89.4290,1015.8,1111122 
NDBC,ioos:station:NOAA.NDBC:BURL1:1,2017-05-18T15:00:00Z,28.9060,-89.4290,1015.9,1111122 
NDBC,ioos:station:NOAA.NDBC:BURL1:1,2017-05-18T19:00:00Z,28.9060,-89.4290,1015.1,1111122 
NDBC,ioos:station:NOAA.NDBC:BURL1:1,2017-05-18T20:00:00Z,28.9060,-89.4290,1014.9,1111122 
NDBC,ioos:station:NOAA.NDBC:BURL1:1,2017-05-18T21:00:00Z,28.9060,-89.4290,1014.7,1111122 
NDBC,ioos:station:NOAA.NDBC:BURL1:1,2017-05-18T22:00:00Z,28.9060,-89.4290,1014.6,1111122 
NDBC,ioos:station:NOAA.NDBC:BURL1:1,2017-05-18T23:00:00Z,28.9060,-89.4290,1014.3,1111122 
NDBC,ioos:station:NOAA.NDBC:BURL1:1,2017-05-19T00:00:00Z,28.9060,-89.4290,1014.2,1111122 
NDBC,ioos:station:NOAA.NDBC:BURL1:1,2017-05-19T01:00:00Z,28.9060,-89.4290,1014.3,1111122 
NDBC,ioos:station:NOAA.NDBC:BURL1:1,2017-05-19T02:00:00Z,28.9060,-89.4290,1014.4,1111122 
NDBC,ioos:station:NOAA.NDBC:BURL1:1,2017-05-19T03:00:00Z,28.9060,-89.4290,1014.2,1111122 
NDBC,ioos:station:NOAA.NDBC:BURL1:1,2017-05-19T04:00:00Z,28.9060,-89.4290,1014.2,1111122 
NDBC,ioos:station:NOAA.NDBC:BURL1:1,2017-05-19T05:00:00Z,28.9060,-89.4290,1013.8,1111122 
NDBC,ioos:station:NOAA.NDBC:BURL1:1,2017-05-19T06:00:00Z,28.9060,-89.4290,1014.1,1111122 
NDBC,ioos:station:NOAA.NDBC:BURL1:1,2017-05-19T07:00:00Z,28.9060,-89.4290,1014.1,1111122 
NDBC,ioos:station:NOAA.NDBC:BURL1:1,2017-05-19T08:00:00Z,28.9060,-89.4290,1013.7,1111122 
NDBC,ioos:station:NOAA.NDBC:BURL1:1,2017-05-19T09:00:00Z,28.9060,-89.4290,1013.6,1111122 
NDBC,ioos:station:NOAA.NDBC:BURL1:1,2017-05-19T10:00:00Z,28.9060,-89.4290,1013.3,1111122 
NDBC,ioos:station:NOAA.NDBC:BURL1:1,2017-05-19T11:00:00Z,28.9060,-89.4290,1014.1,1111122 
NDBC,ioos:station:NOAA.NDBC:BURL1:1,2017-05-19T12:00:00Z,28.9060,-89.4290,1014.7,1111122 
NDBC,ioos:station:NOAA.NDBC:BURL1:1,2017-05-19T13:00:00Z,28.9060,-89.4290,1014.9,1111122 
NDBC,ioos:station:NOAA.NDBC:BURL1:1,2017-05-19T14:00:00Z,28.9060,-89.4290,1015.0,1111122 
NDBC,ioos:station:NOAA.NDBC:BURL1:1,2017-05-19T15:00:00Z,28.9060,-89.4290,1014.9,1111122 
NDBC,ioos:station:NOAA.NDBC:BURL1:1,2017-05-19T16:00:00Z,28.9060,-89.4290,1014.9,1111122 
NDBC,ioos:station:NOAA.NDBC:BURL1:1,2017-05-19T17:00:00Z,28.9060,-89.4290,1014.7,1111122 
NDBC,ioos:station:NOAA.NDBC:BURL1:1,2017-05-19T18:00:00Z,28.9060,-89.4290,1014.4,1111122 
NDBC,ioos:station:NOAA.NDBC:BURL1:1,2017-05-19T19:00:00Z,28.9060,-89.4290,1014.0,1111122 
NDBC,ioos:station:NOAA.NDBC:BURL1:1,2017-05-19T20:00:00Z,28.9060,-89.4290,1014.0,1111122 
NDBC,ioos:station:NOAA.NDBC:BURL1:1,2017-05-19T21:00:00Z,28.9060,-89.4290,1013.5,1111122 
NDBC,ioos:station:NOAA.NDBC:BURL1:1,2017-05-19T22:00:00Z,28.9060,-89.4290,1013.4,1111122 
NDBC,ioos:station:NOAA.NDBC:BURL1:1,2017-05-19T23:00:00Z,28.9060,-89.4290,1013.2,1111122 
NDBC,ioos:station:NOAA.NDBC:BURL1:1,2017-05-20T00:00:00Z,28.9060,-89.4290,1013.2,1111122 
NDBC,ioos:station:NOAA.NDBC:BURL1:1,2017-05-20T01:00:00Z,28.9060,-89.4290,1013.2,1111122 
NDBC,ioos:station:NOAA.NDBC:BURL1:1,2017-05-20T02:00:00Z,28.9060,-89.4290,1013.4,1111122 
NDBC,ioos:station:NOAA.NDBC:BURL1:1,2017-05-20T03:00:00Z,28.9060,-89.4290,1014.0,1111122 
NDBC,ioos:station:NOAA.NDBC:BURL1:1,2017-05-20T05:00:00Z,28.9060,-89.4290,1013.8,1111122 
NDBC,ioos:station:NOAA.NDBC:BURL1:1,2017-05-20T06:00:00Z,28.9060,-89.4290,1013.7,1111122 
NDBC,ioos:station:NOAA.NDBC:BURL1:1,2017-05-20T07:00:00Z,28.9060,-89.4290,1013.4,1111122 
NDBC,ioos:station:NOAA.NDBC:BURL1:1,2017-05-20T08:00:00Z,28.9060,-89.4290,1012.8,1111122 
NDBC,ioos:station:NOAA.NDBC:BURL1:1,2017-05-20T09:00:00Z,28.9060,-89.4290,1012.8,1111122 
NDBC,ioos:station:NOAA.NDBC:BURL1:1,2017-05-20T10:00:00Z,28.9060,-89.4290,1012.8,1111122 
NDBC,ioos:station:NOAA.NDBC:BURL1:1,2017-05-20T11:00:00Z,28.9060,-89.4290,1013.1,1111122 
NDBC,ioos:station:NOAA.NDBC:BURL1:1,2017-05-20T12:00:00Z,28.9060,-89.4290,1013.4,1111122 
NDBC,ioos:station:NOAA.NDBC:BURL1:1,2017-05-20T13:00:00Z,28.9060,-89.4290,1014.1,1111122 
NDBC,ioos:station:NOAA.NDBC:BURL1:1,2017-05-20T14:00:00Z,28.9060,-89.4290,1014.7,1111122 
NDBC,ioos:station:NOAA.NDBC:BURL1:1,2017-05-20T15:00:00Z,28.9060,-89.4290,1014.9,1111122 
NDBC,ioos:station:NOAA.NDBC:BURL1:1,2017-05-20T16:00:00Z,28.9060,-89.4290,1015.1,1111122 
NDBC,ioos:station:NOAA.NDBC:BURL1:1,2017-05-20T17:00:00Z,28.9060,-89.4290,1015.4,1111122 
NDBC,ioos:station:NOAA.NDBC:BURL1:1,2017-05-20T18:00:00Z,28.9060,-89.4290,1015.0,1111122 
NDBC,ioos:station:NOAA.NDBC:BURL1:1,2017-05-20T19:00:00Z,28.9060,-89.4290,1014.5,1111122 
NDBC,ioos:station:NOAA.NDBC:BURL1:1,2017-05-20T20:00:00Z,28.9060,-89.4290,1013.8,1111122 
NDBC,ioos:station:NOAA.NDBC:BURL1:1,2017-05-20T21:00:00Z,28.9060,-89.4290,1013.8,1111122 
NDBC,ioos:station:NOAA.NDBC:BURL1:1,2017-05-20T22:00:00Z,28.9060,-89.4290,1013.6,1111122 
NDBC,ioos:station:NOAA.NDBC:BURL1:1,2017-05-20T23:00:00Z,28.9060,-89.4290,1013.3,1111122 
NDBC,ioos:station:NOAA.NDBC:BURL1:1,2017-05-21T00:00:00Z,28.9060,-89.4290,1013.8,1111122 
NDBC,ioos:station:NOAA.NDBC:BURL1:1,2017-05-21T01:00:00Z,28.9060,-89.4290,1014.3,1111122 
NDBC,ioos:station:NOAA.NDBC:BURL1:1,2017-05-21T02:00:00Z,28.9060,-89.4290,1015.0,1111122 
NDBC,ioos:station:NOAA.NDBC:BURL1:1,2017-05-21T03:00:00Z,28.9060,-89.4290,1016.1,1111122 
NDBC,ioos:station:NOAA.NDBC:BURL1:1,2017-05-21T04:00:00Z,28.9060,-89.4290,1016.2,1111122 
NDBC,ioos:station:NOAA.NDBC:BURL1:1,2017-05-21T05:00:00Z,28.9060,-89.4290,1016.3,1111122 
NDBC,ioos:station:NOAA.NDBC:BURL1:1,2017-05-21T06:00:00Z,28.9060,-89.4290,1016.3,1111122 
NDBC,ioos:station:NOAA.NDBC:BURL1:1,2017-05-21T07:00:00Z,28.9060,-89.4290,1016.0,1111122 
NDBC,ioos:station:NOAA.NDBC:BURL1:1,2017-05-21T08:00:00Z,28.9060,-89.4290,1015.9,1111122 
NDBC,ioos:station:NOAA.NDBC:BURL1:1,2017-05-21T09:00:00Z,28.9060,-89.4290,1015.9,1111122 
NDBC,ioos:station:NOAA.NDBC:BURL1:1,2017-05-21T10:00:00Z,28.9060,-89.4290,1016.2,1111122 
NDBC,ioos:station:NOAA.NDBC:BURL1:1,2017-05-21T11:00:00Z,28.9060,-89.4290,1016.8,1111122 
NDBC,ioos:station:NOAA.NDBC:BURL1:1,2017-05-21T12:00:00Z,28.9060,-89.4290,1017.6,1111122 
NDBC,ioos:station:NOAA.NDBC:BURL1:1,2017-05-21T13:00:00Z,28.9060,-89.4290,1018.1,1111122 
NDBC,ioos:station:NOAA.NDBC:BURL1:1,2017-05-21T14:00:00Z,28.9060,-89.4290,1018.5,1111122 
NDBC,ioos:station:NOAA.NDBC:BURL1:1,2017-05-21T15:00:00Z,28.9060,-89.4290,1018.2,1111122 
NDBC,ioos:station:NOAA.NDBC:BURL1:1,2017-05-21T16:00:00Z,28.9060,-89.4290,1018.8,1111122 
NDBC,ioos:station:NOAA.NDBC:BURL1:1,2017-05-21T17:00:00Z,28.9060,-89.4290,1018.6,1111122 
NDBC,ioos:station:NOAA.NDBC:BURL1:1,2017-05-21T18:00:00Z,28.9060,-89.4290,1018.5,1111122 
NDBC,ioos:station:NOAA.NDBC:BURL1:1,2017-05-21T19:00:00Z,28.9060,-89.4290,1018.8,1111122 
NDBC,ioos:station:NOAA.NDBC:BURL1:1,2017-05-21T20:00:00Z,28.9060,-89.4290,1018.9,1111122 
NDBC,ioos:station:NOAA.NDBC:BURL1:1,2017-05-21T21:00:00Z,28.9060,-89.4290,1018.0,1111122 
NDBC,ioos:station:NOAA.NDBC:BURL1:1,2017-05-21T22:00:00Z,28.9060,-89.4290,1017.8,1111122 
NDBC,ioos:station:NOAA.NDBC:BURL1:1,2017-05-21T23:00:00Z,28.9060,-89.4290,1016.9,1111122 
NDBC,ioos:station:NOAA.NDBC:BURL1:1,2017-05-22T00:00:00Z,28.9060,-89.4290,1016.7,1111122 
NDBC,ioos:station:NOAA.NDBC:BURL1:1,2017-05-22T01:00:00Z,28.9060,-89.4290,1018.4,1111122 
NDBC,ioos:station:NOAA.NDBC:BURL1:1,2017-05-22T02:00:00Z,28.9060,-89.4290,1018.5,1111122 
NDBC,ioos:station:NOAA.NDBC:BURL1:1,2017-05-22T03:00:00Z,28.9060,-89.4290,1019.8,1111122 
NDBC,ioos:station:NOAA.NDBC:BURL1:1,2017-05-22T04:00:00Z,28.9060,-89.4290,1020.0,1111122 
NDBC,ioos:station:NOAA.NDBC:BURL1:1,2017-05-22T05:00:00Z,28.9060,-89.4290,1019.3,1111122 
NDBC,ioos:station:NOAA.NDBC:BURL1:1,2017-05-22T06:00:00Z,28.9060,-89.4290,1018.1,1111122 
NDBC,ioos:station:NOAA.NDBC:BURL1:1,2017-05-22T07:00:00Z,28.9060,-89.4290,1016.0,1111122 
NDBC,ioos:station:NOAA.NDBC:BURL1:1,2017-05-22T08:00:00Z,28.9060,-89.4290,1015.2,1111122 
NDBC,ioos:station:NOAA.NDBC:BURL1:1,2017-05-22T09:00:00Z,28.9060,-89.4290,1016.0,1111122 
NDBC,ioos:station:NOAA.NDBC:BURL1:1,2017-05-22T10:00:00Z,28.9060,-89.4290,1016.9,1111122 
NDBC,ioos:station:NOAA.NDBC:BURL1:1,2017-05-22T11:00:00Z,28.9060,-89.4290,1017.7,1111122 
NDBC,ioos:station:NOAA.NDBC:BURL1:1,2017-05-22T12:00:00Z,28.9060,-89.4290,1018.0,1111122 
NDBC,ioos:station:NOAA.NDBC:BURL1:1,2017-05-22T13:00:00Z,28.9060,-89.4290,1017.6,1111122 
NDBC,ioos:station:NOAA.NDBC:BURL1:1,2017-05-22T14:00:00Z,28.9060,-89.4290,1017.2,1111122 
NDBC,ioos:station:NOAA.NDBC:BURL1:1,2017-05-22T15:00:00Z,28.9060,-89.4290,1016.8,1111122 
NDBC,ioos:station:NOAA.NDBC:BURL1:1,2017-05-22T16:00:00Z,28.9060,-89.4290,1017.0,1111122 
NDBC,ioos:station:NOAA.NDBC:BURL1:1,2017-05-22T18:00:00Z,28.9060,-89.4290,1016.2,1111122 
NDBC,ioos:station:NOAA.NDBC:BURL1:1,2017-05-22T19:00:00Z,28.9060,-89.4290,1016.1,1111122 
NDBC,ioos:station:NOAA.NDBC:BURL1:1,2017-05-22T20:00:00Z,28.9060,-89.4290,1015.4,1111122 
NDBC,ioos:station:NOAA.NDBC:BURL1:1,2017-05-22T21:00:00Z,28.9060,-89.4290,1014.8,1111122 
NDBC,ioos:station:NOAA.NDBC:BURL1:1,2017-05-22T22:00:00Z,28.9060,-89.4290,1014.2,1111122 
NDBC,ioos:station:NOAA.NDBC:BURL1:1,2017-05-22T23:00:00Z,28.9060,-89.4290,1013.2,1111122 
NDBC,ioos:station:NOAA.NDBC:BURL1:1,2017-05-23T00:00:00Z,28.9060,-89.4290,1013.1,1111122 
NDBC,ioos:station:NOAA.NDBC:BURL1:1,2017-05-23T01:00:00Z,28.9060,-89.4290,1013.0,1111122 
NDBC,ioos:station:NOAA.NDBC:BURL1:1,2017-05-23T02:00:00Z,28.9060,-89.4290,1013.2,1111122 
NDBC,ioos:station:NOAA.NDBC:BURL1:1,2017-05-23T03:00:00Z,28.9060,-89.4290,1013.5,1111122 
NDBC,ioos:station:NOAA.NDBC:BURL1:1,2017-05-23T04:00:00Z,28.9060,-89.4290,1012.9,1111122 
NDBC,ioos:station:NOAA.NDBC:BURL1:1,2017-05-23T05:00:00Z,28.9060,-89.4290,1013.1,1111122 
NDBC,ioos:station:NOAA.NDBC:BURL1:1,2017-05-23T06:00:00Z,28.9060,-89.4290,1011.2,1111122 
NDBC,ioos:station:NOAA.NDBC:BURL1:1,2017-05-23T07:00:00Z,28.9060,-89.4290,1010.9,1111122 
NDBC,ioos:station:NOAA.NDBC:BURL1:1,2017-05-23T08:00:00Z,28.9060,-89.4290,1010.0,1111122 
NDBC,ioos:station:NOAA.NDBC:BURL1:1,2017-05-23T09:00:00Z,28.9060,-89.4290,1008.6,1111122 
NDBC,ioos:station:NOAA.NDBC:BURL1:1,2017-05-23T10:00:00Z,28.9060,-89.4290,1008.7,1111122 
NDBC,ioos:station:NOAA.NDBC:BURL1:1,2017-05-23T11:00:00Z,28.9060,-89.4290,1007.5,1111122 
NDBC,ioos:station:NOAA.NDBC:BURL1:1,2017-05-23T12:00:00Z,28.9060,-89.4290,1009.2,1111122 
NDBC,ioos:station:NOAA.NDBC:BURL1:1,2017-05-23T13:00:00Z,28.9060,-89.4290,1009.1,1111122 
NDBC,ioos:station:NOAA.NDBC:BURL1:1,2017-05-23T14:00:00Z,28.9060,-89.4290,1009.0,1111122 
NDBC,ioos:station:NOAA.NDBC:BURL1:1,2017-05-23T15:00:00Z,28.9060,-89.4290,1009.3,1111122 
NDBC,ioos:station:NOAA.NDBC:BURL1:1,2017-05-23T16:00:00Z,28.9060,-89.4290,1009.7,1111122 
NDBC,ioos:station:NOAA.NDBC:BURL1:1,2017-05-23T17:00:00Z,28.9060,-89.4290,1009.4,1111122 
NDBC,ioos:station:NOAA.NDBC:BURL1:1,2017-05-23T18:00:00Z,28.9060,-89.4290,1009.5,1111122 
NDBC,ioos:station:NOAA.NDBC:BURL1:1,2017-05-23T19:00:00Z,28.9060,-89.4290,1008.7,1111122 
NDBC,ioos:station:NOAA.NDBC:BURL1:1,2017-05-23T20:00:00Z,28.9060,-89.4290,1008.1,1111122 
NDBC,ioos:station:NOAA.NDBC:BURL1:1,2017-05-23T21:00:00Z,28.9060,-89.4290,1007.7,1111122 
NDBC,ioos:station:NOAA.NDBC:BURL1:1,2017-05-23T22:00:00Z,28.9060,-89.4290,1007.5,1111122 
NDBC,ioos:station:NOAA.NDBC:BURL1:1,2017-05-23T23:00:00Z,28.9060,-89.4290,1007.2,1111122 
NDBC,ioos:station:NOAA.NDBC:BURL1:1,2017-05-24T00:00:00Z,28.9060,-89.4290,1006.4,1111122 
NDBC,ioos:station:NOAA.NDBC:BURL1:1,2017-05-24T01:00:00Z,28.9060,-89.4290,1006.6,1111122 
NDBC,ioos:station:NOAA.NDBC:BURL1:1,2017-05-24T02:00:00Z,28.9060,-89.4290,1006.6,1111122 
NDBC,ioos:station:NOAA.NDBC:BURL1:1,2017-05-24T03:00:00Z,28.9060,-89.4290,1007.5,1111122 
NDBC,ioos:station:NOAA.NDBC:BURL1:1,2017-05-24T04:00:00Z,28.9060,-89.4290,1008.3,1111122 
NDBC,ioos:station:NOAA.NDBC:BURL1:1,2017-05-24T05:00:00Z,28.9060,-89.4290,1007.9,1111122 
NDBC,ioos:station:NOAA.NDBC:BURL1:1,2017-05-24T06:00:00Z,28.9060,-89.4290,1007.3,1111122 
NDBC,ioos:station:NOAA.NDBC:BURL1:1,2017-05-24T07:00:00Z,28.9060,-89.4290,1007.2,1111122 
NDBC,ioos:station:NOAA.NDBC:BURL1:1,2017-05-24T08:00:00Z,28.9060,-89.4290,1006.5,1111122 
NDBC,ioos:station:NOAA.NDBC:BURL1:1,2017-05-24T09:00:00Z,28.9060,-89.4290,1004.0,1111122 
NDBC,ioos:station:NOAA.NDBC:BURL1:1,2017-05-24T10:00:00Z,28.9060,-89.4290,1004.4,1111122 
NDBC,ioos:station:NOAA.NDBC:BURL1:1,2017-05-24T11:00:00Z,28.9060,-89.4290,1004.1,1111122 
NDBC,ioos:station:NOAA.NDBC:BURL1:1,2017-05-24T12:00:00Z,28.9060,-89.4290,1004.0,1111122 
NDBC,ioos:station:NOAA.NDBC:BURL1:1,2017-05-24T13:00:00Z,28.9060,-89.4290,1004.5,1111122 
NDBC,ioos:station:NOAA.NDBC:BURL1:1,2017-05-24T14:00:00Z,28.9060,-89.4290,1005.5,1111122 
NDBC,ioos:station:NOAA.NDBC:BURL1:1,2017-05-24T15:00:00Z,28.9060,-89.4290,1005.8,1111122 
NDBC,ioos:station:NOAA.NDBC:BURL1:1,2017-05-24T16:00:00Z,28.9060,-89.4290,1006.2,1111122 
NDBC,ioos:station:NOAA.NDBC:BURL1:1,2017-05-24T17:00:00Z,28.9060,-89.4290,1006.2,1111122 
NDBC,ioos:station:NOAA.NDBC:BURL1:1,2017-05-24T18:00:00Z,28.9060,-89.4290,1006.4,1111122 